| time (UTC) | temp C | wind direction | speed KPH | gust KPH | rain 1hr cm | rain 24hr cm | rain mn cm | humidity % | barometer mb |
| 20260505151505 | 18 | 45 | 3.2 | 8.0 | 0.00 | 0.03 | 0.03 | 72 | 1005.4 |
| 20260505130109 | 18 | 53 | 1.6 | 6.4 | 0.00 | 0.03 | 0.03 | 77 | 1006.1 |
| 20260505124556 | 18 | 86 | 3.2 | 9.7 | 0.00 | 0.03 | 0.03 | 78 | 1006.4 |
| 20260505123047 | 17 | 167 | 3.2 | 6.4 | 0.00 | 0.03 | 0.03 | 82 | 1006.5 |
| 20260505121547 | 17 | 62 | 0.0 | 6.4 | 0.00 | 0.03 | 0.03 | 86 | 1006.6 |
| 20260505120039 | 16 | 165 | 1.6 | 8.0 | 0.00 | 0.03 | 0.03 | 88 | 1006.7 |
| 20260505114537 | 16 | 142 | 1.6 | 4.8 | 0.00 | 0.03 | 0.03 | 88 | 1006.8 |
| 20260505113036 | 16 | 147 | 1.6 | 3.2 | 0.00 | 0.03 | 0.03 | 89 | 1006.9 |
| 20260505111539 | 16 | 147 | 0.0 | 4.8 | 0.00 | 0.03 | 0.03 | 88 | 1007.0 |
| 20260505101533 | 16 | 121 | 1.6 | 4.8 | 0.03 | 0.03 | 0.03 | 87 | 1007.1 |
| 20260505100032 | 15 | 213 | 0.0 | 1.6 | 0.03 | 0.03 | 0.03 | 87 | 1007.2 |
| 20260505094534 | 15 | 213 | 1.6 | 4.8 | 0.00 | 0.00 | 0.00 | 86 | 1007.2 |
| 20260505093029 | 15 | 330 | 1.6 | 3.2 | 0.00 | 0.00 | 0.00 | 85 | 1007.1 |
| 20260505091529 | 15 | 329 | 0.0 | 3.2 | 0.00 | 0.00 | 0.00 | 85 | 1007.1 |
| 20260505090030 | 15 | 329 | 0.0 | 1.6 | 0.00 | 0.00 | 0.00 | 85 | 1007.2 |
| 20260505084527 | 15 | 329 | 1.6 | 3.2 | 0.00 | 0.00 | 0.00 | 86 | 1007.3 |
| 20260505083025 | 15 | 329 | 0.0 | 3.2 | 0.00 | 0.00 | 0.00 | 86 | 1007.3 |
| 20260505081539 | 15 | 329 | 1.6 | 4.8 | 0.00 | 0.00 | 0.00 | 87 | 1007.3 |
| 20260505080023 | 14 | 329 | 1.6 | 3.2 | 0.00 | 0.00 | 0.00 | 88 | 1007.5 |
| 20260505074522 | 14 | 329 | 0.0 | 4.8 | 0.00 | 0.00 | 0.00 | 89 | 1007.5 |
| 20260505073025 | 13 | 98 | 0.0 | 4.8 | 0.00 | 0.00 | 0.00 | 90 | 1007.5 |
| 20260505071542 | 13 | 98 | 0.0 | 3.2 | 0.00 | 0.00 | 0.00 | 90 | 1007.5 |
| 20260505070020 | 13 | 97 | 3.2 | 6.4 | 0.00 | 0.00 | 0.00 | 89 | 1007.6 |
| 20260505064524 | 13 | 95 | 3.2 | 11.3 | 0.00 | 0.00 | 0.00 | 89 | 1007.5 |
| 20260505063019 | 13 | 96 | 3.2 | 6.4 | 0.00 | 0.00 | 0.00 | 89 | 1007.5 |
| 20260505061519 | 13 | 96 | 1.6 | 4.8 | 0.00 | 0.00 | 0.00 | 89 | 1007.6 |
| 20260505060019 | 13 | 338 | 0.0 | 0.0 | 0.00 | 0.00 | 0.00 | 88 | 1007.6 |
| 20260505054517 | 13 | 338 | 1.6 | 3.2 | 0.00 | 0.00 | 0.00 | 88 | 1007.7 |
| 20260505053024 | 13 | 338 | 0.0 | 1.6 | 0.00 | 0.00 | 0.00 | 88 | 1007.7 |
| 20260505051529 | 13 | 338 | 0.0 | 1.6 | 0.00 | 0.00 | 0.00 | 88 | 1007.7 |
| 20260505041516 | 13 | 338 | 0.0 | 3.2 | 0.00 | 0.00 | 0.00 | 86 | 1007.7 |
| 20260505040011 | 13 | 338 | 1.6 | 4.8 | 0.00 | 0.00 | 0.00 | 85 | 1007.6 |
| 20260505034509 | 13 | 338 | 0.0 | 0.0 | 0.00 | 0.00 | 0.00 | 85 | 1007.7 |
| 20260505033011 | 13 | 338 | 0.0 | 1.6 | 0.00 | 0.00 | 0.00 | 85 | 1007.8 |
| 20260505031507 | 13 | 338 | 1.6 | 3.2 | 0.00 | 0.00 | 0.00 | 85 | 1007.8 |
| 20260505030018 | 13 | 338 | 0.0 | 3.2 | 0.00 | 0.00 | 0.00 | 85 | 1008.0 |
| 20260505024503 | 13 | 338 | 1.6 | 4.8 | 0.00 | 0.00 | 0.00 | 84 | 1008.1 |
| 20260505023002 | 13 | 338 | 0.0 | 3.2 | 0.00 | 0.00 | 0.00 | 84 | 1008.2 |
| 20260505021502 | 13 | 338 | 1.6 | 6.4 | 0.00 | 0.00 | 0.00 | 84 | 1008.2 |
| 20260505020105 | 13 | 338 | 3.2 | 4.8 | 0.00 | 0.00 | 0.00 | 83 | 1008.3 |
| 20260505014600 | 14 | 288 | 1.6 | 4.8 | 0.00 | 0.00 | 0.00 | 83 | 1008.4 |
| 20260505013058 | 14 | 288 | 1.6 | 4.8 | 0.00 | 0.00 | 0.00 | 82 | 1008.5 |
| 20260505011558 | 14 | 288 | 1.6 | 8.0 | 0.00 | 0.00 | 0.00 | 82 | 1008.6 |
| 20260505010103 | 14 | 278 | 8.0 | 14.5 | 0.00 | 0.00 | 0.00 | 83 | 1008.7 |
| 20260505004554 | 13 | 325 | 0.0 | 0.0 | 0.00 | 0.00 | 0.00 | 84 | 1008.5 |
| 20260505003056 | 13 | 325 | 0.0 | 0.0 | 0.00 | 0.00 | 0.00 | 83 | 1008.6 |
| 20260505001552 | 13 | 325 | 0.0 | 0.0 | 0.00 | 0.00 | 0.00 | 83 | 1008.8 |
| 20260505000058 | 13 | 325 | 0.0 | 0.0 | 0.00 | 0.00 | 0.00 | 83 | 1009.1 |
| 20260504234548 | 13 | 325 | 0.0 | 0.0 | 0.00 | 0.00 | 0.00 | 82 | 1008.9 |
| 20260504233049 | 14 | 325 | 0.0 | 0.0 | 0.00 | 0.00 | 0.00 | 81 | 1009.0 |
| 20260504231543 | 14 | 325 | 0.0 | 0.0 | 0.00 | 0.00 | 0.00 | 80 | 1009.3 |
| 20260504230042 | 14 | 325 | 0.0 | 0.0 | 0.00 | 0.00 | 0.00 | 80 | 1009.4 |
| 20260504224641 | 14 | 325 | 0.0 | 0.0 | 0.00 | 0.00 | 0.00 | 79 | 1009.6 |
| 20260504223037 | 15 | 325 | 0.0 | 0.0 | 0.00 | 0.00 | 0.00 | 76 | 1009.5 |
| 20260504221536 | 16 | 325 | 0.0 | 0.0 | 0.00 | 0.00 | 0.00 | 74 | 1009.4 |
| 20260504220032 | 16 | 325 | 0.0 | 0.0 | 0.00 | 0.00 | 0.00 | 74 | 1009.6 |
| 20260504214530 | 16 | 325 | 0.0 | 0.0 | 0.00 | 0.00 | 0.00 | 74 | 1009.5 |
| 20260504213030 | 16 | 325 | 0.0 | 0.0 | 0.00 | 0.00 | 0.00 | 72 | 1009.6 |
| 20260504211529 | 16 | 325 | 0.0 | 0.0 | 0.00 | 0.00 | 0.00 | 71 | 1009.6 |
| 20260504210030 | 17 | 325 | 0.0 | 0.0 | 0.00 | 0.00 | 0.00 | 71 | 1009.5 |
| 20260504204529 | 17 | 325 | 0.0 | 0.0 | 0.00 | 0.00 | 0.00 | 70 | 1009.7 |
| 20260504203025 | 17 | 325 | 0.0 | 0.0 | 0.00 | 0.00 | 0.00 | 68 | 1009.7 |
| 20260504201523 | 17 | 325 | 0.0 | 0.0 | 0.00 | 0.00 | 0.00 | 67 | 1009.7 |
| 20260504200036 | 18 | 325 | 0.0 | 0.0 | 0.00 | 0.00 | 0.00 | 65 | 1009.6 |
| 20260504194523 | 18 | 325 | 0.0 | 0.0 | 0.00 | 0.00 | 0.00 | 65 | 1009.6 |
| 20260504193022 | 18 | 325 | 0.0 | 0.0 | 0.00 | 0.00 | 0.00 | 63 | 1009.5 |
| 20260504191536 | 18 | 325 | 1.6 | 3.2 | 0.00 | 0.00 | 0.00 | 62 | 1009.4 |
| 20260504190022 | 18 | 325 | 1.6 | 4.8 | 0.00 | 0.00 | 0.00 | 61 | 1009.3 |
| 20260504184520 | 19 | 325 | 3.2 | 4.8 | 0.00 | 0.00 | 0.00 | 59 | 1009.3 |
| 20260504183034 | 20 | 325 | 0.0 | 3.2 | 0.00 | 0.00 | 0.00 | 58 | 1009.2 |
| 20260504181525 | 20 | 325 | 1.6 | 4.8 | 0.00 | 0.00 | 0.00 | 56 | 1009.2 |
| 20260504180021 | 21 | 304 | 0.0 | 0.0 | 0.00 | 0.00 | 0.00 | 53 | 1009.1 |
| 20260504174520 | 21 | 304 | 0.0 | 0.0 | 0.00 | 0.00 | 0.00 | 51 | 1009.0 |
| 20260504173017 | 21 | 304 | 0.0 | 0.0 | 0.00 | 0.00 | 0.00 | 51 | 1009.1 |
| 20260504171517 | 21 | 304 | 0.0 | 4.8 | 0.00 | 0.00 | 0.00 | 50 | 1009.1 |